2021-006BC (47463 NORAD) Tracking and Keplerian Element Data
This shows tracking and keplerian element data for the satellite.
Feedback or suggestion? Click here.
Element | Value |
Catalog | 47463 |
Name | 2021-006BC |
Epoch Orbit | 472 |
Epoch Day | 53.86202839 |
Epoch Year | 2021 |
RAAN | 116.9904 |
Inclination | 97.499 |
Eccentricity | 0.0010605 |
Argument of Perigee | 151.3085 |
Mean Anonmoly | 208.873 |
Mean Motion | 15.11473292 |
Decay Rate | 1.407E-05 |
L1 | 1 47463U 21006BC 21053.86202839 .00001407 00000-0 86849-4 0 9993 |
L2 | 2 47463 97.4990 116.9904 0010605 151.3085 208.8730 15.11473292 4725 |
Live tracking and technical data element details for 2021-006BC (NORAD 47463). 2021-006BC can be tracked NOW for your location showing map with azimuth and elevation plus other details from your city location.
Track the satellite on the map from your city or location and see movement details for azimuth, elevation, latitude, longitude, range, height, and movement on the map or in text.
IsCatalogInMostPopularTable: catalog: 47463, numindb: 14
Update: records affected: 1
GetName: 47463 2021-006BC
Hit Count: updated at: Tue, 13 Apr 2021 03:22:56 GMT